Location: Sungai Bunut
(2.6333°N, 113.7333°E)
Time: 00:41:52
(UTC+00:00)

S-56A Canister/Altair - Pass Details

Date: 08 December 2023
Orbit: 640 x 2488 km, 38.9° (Epoch: 24 February)

Event Time Altitude Azimuth Distance (km) Brightness Sun altitude
Rises 10:16:56 0° 321° (NW) 3,533 11.2 -1.0°
Reaches altitude 10° 10:19:10 10° 326° (NW) 2,768 10.6 -1.6°
Maximum altitude 10:25:50 58° 44° (NE) 1,505 8.8 -3.1°
Drops below altitude 10° 10:36:00 10° 121° (ESE) 4,148 10.9 -5.4°
Sets 10:40:05 0° 124° (SE) 5,425 11.5 -6.4°
